LTA880 KMCO-KLAL

Flight info

Callsign LTA880
Flight time N/A
Altitude VFR/065
Route
Aircraft DA62/L-VGD/C

Departure

Time 2026-04-22 00:02
Airport Orlando International Airport (KMCO)

Arrival

Time N/A
Airport Lakeland Linder International Airport (KLAL)
Time Latitude Longitude Altitude Speed Heading
2026-04-22 00:01 28.40757 -81.34709 1113 ft 96 kts 135°
2026-04-22 00:02 28.40494 -81.34052 769 ft 98 kts 95°
2026-04-22 00:02 28.40503 -81.33329 474 ft 86 kts 78°
2026-04-22 00:02 28.40832 -81.32774 303 ft 87 kts 35°
2026-04-22 00:02 28.41421 -81.32665 143 ft 84 kts
2026-04-22 00:03 28.41915 -81.32666 101 ft 56 kts 18°
2026-04-22 00:03 28.42407 -81.32662 205 ft 83 kts
2026-04-22 00:03 28.43020 -81.32674 520 ft 89 kts
2026-04-22 00:03 28.43659 -81.32682 890 ft 95 kts 11°
2026-04-22 00:04 28.44352 -81.32860 1106 ft 121 kts 321°
2026-04-22 00:04 28.44524 -81.33820 1299 ft 137 kts 269°
2026-04-22 00:04 28.44498 -81.34910 1378 ft 137 kts 265°
2026-04-22 00:04 28.44411 -81.35995 1320 ft 134 kts 264°
2026-04-22 00:05 28.44322 -81.37059 1371 ft 141 kts 263°
2026-04-22 00:05 28.44238 -81.38205 1369 ft 145 kts 263°
2026-04-22 00:05 28.44169 -81.39305 1223 ft 128 kts 263°
2026-04-22 00:05 28.44107 -81.40252 1320 ft 118 kts 264°
2026-04-22 00:06 28.44020 -81.41218 1404 ft 129 kts 263°
2026-04-22 00:06 28.43917 -81.42304 1421 ft 148 kts 263°
2026-04-22 00:06 28.43805 -81.43493 1416 ft 149 kts 263°
2026-04-22 00:06 28.43719 -81.44602 1408 ft 136 kts 263°
2026-04-22 00:07 28.43642 -81.45670 1407 ft 140 kts 264°
2026-04-22 00:07 28.43538 -81.46812 1411 ft 148 kts 263°
2026-04-22 00:07 28.43429 -81.47977 1407 ft 150 kts 261°
2026-04-22 00:07 28.43095 -81.49086 1408 ft 151 kts 243°
2026-04-22 00:08 28.42678 -81.50199 1441 ft 152 kts 243°
2026-04-22 00:08 28.42272 -81.51231 1914 ft 131 kts 242°
2026-04-22 00:08 28.41948 -81.52130 2465 ft 118 kts 243°
2026-04-22 00:08 28.41631 -81.52992 2846 ft 121 kts 244°
2026-04-22 00:09 28.41289 -81.53871 3244 ft 120 kts 242°
2026-04-22 00:09 28.40963 -81.54739 3665 ft 121 kts 243°
2026-04-22 00:09 28.40625 -81.55622 4055 ft 122 kts 242°
2026-04-22 00:09 28.40285 -81.56506 4455 ft 124 kts 243°
2026-04-22 00:10 28.39888 -81.57499 4509 ft 155 kts 243°
2026-04-22 00:10 28.39398 -81.58703 4511 ft 177 kts 243°
2026-04-22 00:10 28.38868 -81.60011 4507 ft 182 kts 243°
2026-04-22 00:10 28.38341 -81.61292 4507 ft 179 kts 243°
2026-04-22 00:11 28.37823 -81.62570 4504 ft 175 kts 243°
2026-04-22 00:11 28.37324 -81.63814 4503 ft 171 kts 243°
2026-04-22 00:11 28.36837 -81.65027 4498 ft 169 kts 243°
2026-04-22 00:11 28.36354 -81.66239 4493 ft 168 kts 243°
2026-04-22 00:12 28.35873 -81.67449 4489 ft 167 kts 243°
2026-04-22 00:12 28.35396 -81.68653 4488 ft 166 kts 243°
2026-04-22 00:12 28.34924 -81.69841 4486 ft 163 kts 243°
2026-04-22 00:12 28.34463 -81.70995 4482 ft 161 kts 243°
2026-04-22 00:13 28.33958 -81.72131 4477 ft 160 kts 227°
2026-04-22 00:13 28.33041 -81.72719 4469 ft 151 kts 192°
2026-04-22 00:13 28.32106 -81.73307 4350 ft 155 kts 210°
2026-04-22 00:13 28.31235 -81.74032 4226 ft 157 kts 211°
2026-04-22 00:14 28.30360 -81.74785 4089 ft 156 kts 212°
2026-04-22 00:14 28.29502 -81.75527 3964 ft 155 kts 212°
2026-04-22 00:14 28.28650 -81.76260 3844 ft 155 kts 211°
2026-04-22 00:14 28.27815 -81.76983 3716 ft 138 kts 211°
2026-04-22 00:15 28.27095 -81.77608 3559 ft 124 kts 210°
2026-04-22 00:15 28.26443 -81.78167 3396 ft 115 kts 209°
2026-04-22 00:15 28.25795 -81.78716 3264 ft 118 kts 210°
2026-04-22 00:15 28.25144 -81.79276 3154 ft 120 kts 209°
2026-04-22 00:16 28.24387 -81.79562 3010 ft 108 kts 163°
2026-04-22 00:16 28.23691 -81.79476 2873 ft 97 kts 164°
2026-04-22 00:16 28.23020 -81.79401 2686 ft 98 kts 163°
2026-04-22 00:16 28.22328 -81.79326 2493 ft 103 kts 163°
2026-04-22 00:17 28.21584 -81.79238 2323 ft 113 kts 163°
2026-04-22 00:17 28.20728 -81.79139 2157 ft 135 kts 173°
2026-04-22 00:17 28.19800 -81.79323 1971 ft 136 kts 184°
2026-04-22 00:17 28.18882 -81.79533 1769 ft 134 kts 183°
2026-04-22 00:18 28.17961 -81.79779 1585 ft 137 kts 184°
2026-04-22 00:18 28.17039 -81.80015 1387 ft 132 kts 184°
2026-04-22 00:18 28.16190 -81.80220 1197 ft 119 kts 179°
2026-04-22 00:18 28.15577 -81.79937 1187 ft 87 kts 105°
2026-04-22 00:19 28.15747 -81.79385 1192 ft 78 kts 47°
2026-04-22 00:19 28.15778 -81.78853 1232 ft 85 kts 113°
2026-04-22 00:19 28.15532 -81.78116 1217 ft 112 kts 108°
2026-04-22 00:19 28.15255 -81.77220 1209 ft 126 kts 98°
2026-04-22 00:20 28.15517 -81.76305 1380 ft 119 kts 60°
2026-04-22 00:20 28.15956 -81.75636 1968 ft 94 kts 59°
2026-04-22 00:20 28.16302 -81.75090 2479 ft 80 kts 59°
2026-04-22 00:20 28.16622 -81.74565 2936 ft 83 kts 60°
2026-04-22 00:21 28.16965 -81.74021 3319 ft 86 kts 60°
2026-04-22 00:21 28.17333 -81.73413 3501 ft 109 kts 61°
2026-04-22 00:21 28.17815 -81.72618 3505 ft 135 kts 59°
2026-04-22 00:21 28.18377 -81.71688 3522 ft 150 kts 59°
2026-04-22 00:22 28.18991 -81.70677 3504 ft 158 kts 59°
2026-04-22 00:22 28.19620 -81.69642 3501 ft 160 kts 59°
2026-04-22 00:22 28.20234 -81.68615 3648 ft 157 kts 61°
2026-04-22 00:22 28.20073 -81.67927 2569 ft 171 kts 173°
2026-04-22 00:23 28.18873 -81.67986 2331 ft 176 kts 178°
2026-04-22 00:23 28.17565 -81.68081 1566 ft 198 kts 177°
2026-04-22 00:23 28.16290 -81.68103 732 ft 165 kts 173°
2026-04-22 00:23 28.15141 -81.68015 485 ft 167 kts 170°
2026-04-22 00:24 28.14053 -81.67917 554 ft 153 kts 169°
2026-04-22 00:24 28.13115 -81.67426 576 ft 149 kts 126°
2026-04-22 00:24 28.12769 -81.66365 647 ft 148 kts 90°
2026-04-22 00:24 28.12960 -81.65219 740 ft 152 kts 62°
2026-04-22 00:25 28.13663 -81.64314 836 ft 153 kts 49°
2026-04-22 00:25 28.14334 -81.63411 937 ft 151 kts 57°
2026-04-22 00:25 28.14978 -81.62410 964 ft 162 kts 58°
2026-04-22 00:25 28.15658 -81.61400 1126 ft 153 kts 54°
2026-04-22 00:26 28.16323 -81.60522 1441 ft 146 kts 53°
2026-04-22 00:26 28.17011 -81.59651 1513 ft 148 kts 51°
2026-04-22 00:26 28.17708 -81.58782 1491 ft 149 kts 53°
2026-04-22 00:26 28.18365 -81.57896 1423 ft 146 kts 56°
2026-04-22 00:27 28.19003 -81.57025 1381 ft 140 kts 54°
2026-04-22 00:27 28.19644 -81.56209 1503 ft 141 kts 53°
2026-04-22 00:27 28.20275 -81.55351 1295 ft 139 kts 56°
2026-04-22 00:27 28.20823 -81.54562 964 ft 122 kts 56°
2026-04-22 00:28 28.21153 -81.54071 946 ft 115 kts 60°
2026-04-22 00:28 28.21810 -81.53121 1082 ft 108 kts 56°
2026-04-22 00:28 28.22274 -81.52480 1127 ft 102 kts 56°
2026-04-22 00:28 28.22571 -81.52056 1125 ft 105 kts 57°
2026-04-22 00:29 28.23022 -81.51383 1054 ft 111 kts 58°
2026-04-22 00:29 28.23669 -81.50474 1074 ft 114 kts 50°
2026-04-22 00:29 28.24035 -81.50032 1099 ft 113 kts 53°
2026-04-22 00:29 28.24569 -81.49361 1095 ft 115 kts 54°
2026-04-22 00:30 28.25105 -81.48687 1078 ft 116 kts 52°
2026-04-22 00:30 28.25653 -81.48020 1093 ft 114 kts 55°
2026-04-22 00:30 28.26153 -81.47319 1072 ft 118 kts 56°
2026-04-22 00:30 28.26672 -81.46622 1029 ft 113 kts 53°
2026-04-22 00:31 28.27198 -81.46013 1101 ft 108 kts 41°
2026-04-22 00:31 28.27967 -81.45934 1084 ft 125 kts 356°
2026-04-22 00:31 28.28795 -81.46239 1008 ft 120 kts 346°
2026-04-22 00:31 28.29516 -81.46349 775 ft 94 kts 29°
2026-04-22 00:32 28.29963 -81.45860 506 ft 90 kts 59°
2026-04-22 00:32 28.30253 -81.45255 432 ft 79 kts 73°
2026-04-22 00:32 28.30204 -81.44686 334 ft 81 kts 120°
2026-04-22 00:32 28.29748 -81.44258 120 ft 81 kts 141°
2026-04-22 00:33 28.29350 -81.43971 82 ft 55 kts 150°
2026-04-22 00:33 28.29198 -81.43866 84 ft 11 kts 143°
2026-04-22 00:33 28.29146 -81.43808 87 ft 10 kts 75°
2026-04-22 00:33 28.29176 -81.43752 86 ft 0 kts 57°
2026-04-22 00:34 28.29199 -81.43710 87 ft 8 kts 56°
2026-04-22 00:34 28.29237 -81.43647 83 ft 11 kts 25°
2026-04-22 00:35 28.29303 -81.43690 83 ft 13 kts 300°
2026-04-22 00:35 28.29343 -81.43701 82 ft 0 kts 97°
2026-04-22 00:35 28.29329 -81.43697 85 ft 0 kts 225°